sat.trackr.live / text

‹ back to catalog

YAOGAN-30 07B

NORAD 45461 · 2020-021B

PAYLOAD ACTIVE UNKNOWN

§ Identity

Operator
Country
PRC
Launch date
2020-03-24
Launch site
XICLF
Launch vehicle
Mass (kg)
RCS (m²)

External: N2YO · Heavens-Above · Gunter

§ Orbital elements

Epoch: 2026-09-03T23:58:14.700864Z

Period
95.81 min
Inclination
34.9940°
Eccentricity
0.0002546
Mean motion
15.02996177 rev/d
Perigee alt
555.9 km
Apogee alt
559.4 km
Semi-major
6,935.8 km
B*
1.2024e-4
RAAN
90.0069°
Arg perigee
209.4159°
Mean anomaly
150.6406°
Rev number
35,235

§ Raw data

YAOGAN-30 07B1 45461U 20021B   26246.99878126  .00001621  00000+0  12024-3 0  99962 45461  34.9940  90.0069 0002546 209.4159 150.6406 15.02996177352359

JSON: /api/v1/satellites/45461 · /tle

For live sub-satellite position, see the globe view (requires WebGL).

§ Visibility from observer

Set your observer location to see the next 7 days of passes ≥ 10°. The values pass through the URL so the page stays shareable.

No JS? Fill the form by hand. The geolocation button needs JavaScript.